This is the latest recevied weather packets stored in our database for station/object DH8TOM-3. If no packets are shown the sender has not sent any weather packets the latest 10 day(s).
| Time | Temp. | Humidity | Pressure | Rain* | Wind** | Luminosity | Snow |
|---|---|---|---|---|---|---|---|
| 1777820608 | 25.56° C | 40% | 1009.7 hPa | 0 mm | - | - | - |
| 1777820307 | 25.56° C | 40% | 1009.7 hPa | 0 mm | - | - | - |
| 1777820006 | 25° C | 40% | 1009.8 hPa | 0 mm | - | - | - |
| 1777819705 | 25° C | 40% | 1009.8 hPa | 0 mm | - | - | - |
| 1777819404 | 25.56° C | 40% | 1009.9 hPa | 0 mm | - | - | - |
| 1777819103 | 25.56° C | 40% | 1009.9 hPa | 0 mm | - | - | - |
| 1777818802 | 25.56° C | 40% | 1010 hPa | 0 mm | - | - | - |
| 1777818501 | 25.56° C | 40% | 1010 hPa | 0 mm | - | - | - |
| 1777818200 | 25.56° C | 42% | 1010.2 hPa | 0 mm | - | - | - |
| 1777817899 | 25.56° C | 42% | 1010.2 hPa | 0 mm | - | - | - |
| 1777817598 | 25.56° C | 39% | 1010.3 hPa | 0 mm | - | - | - |
| 1777817297 | 25.56° C | 39% | 1010.3 hPa | 0 mm | - | - | - |
| 1777816996 | 25.56° C | 42% | 1010.5 hPa | 0 mm | - | - | - |
| 1777816694 | 25.56° C | 42% | 1010.5 hPa | 0 mm | - | - | - |
| 1777816394 | 25.56° C | 41% | 1010.6 hPa | 0 mm | - | - | - |
| 1777816093 | 25.56° C | 41% | 1010.6 hPa | 0 mm | - | - | - |
| 1777815792 | 25° C | 41% | 1010.7 hPa | 0 mm | - | - | - |
| 1777815491 | 25° C | 41% | 1010.7 hPa | 0 mm | - | - | - |
| 1777815190 | 25° C | 42% | 1010.9 hPa | 0 mm | - | - | - |
| 1777814889 | 25° C | 42% | 1010.9 hPa | 0 mm | - | - | - |
| 1777814588 | 25° C | 40% | 1011.1 hPa | 0 mm | - | - | - |
| 1777814298 | 25° C | 40% | 1011.2 hPa | 0 mm | - | - | - |
| 1777812495 | 25° C | 40% | 1011.3 hPa | 0 mm | - | - | - |
| 1777756516 | 18.89° C | 51% | 1014.7 hPa | 0 mm | - | - | - |
| 1777756194 | 18.89° C | 51% | 1014.7 hPa | 0 mm | - | - | - |
* Rain latest hour (hover to see other rain measurements)
** Current wind speed in m/s (hover to see current wind gust speed)